Location: Bidart
(43.4376°N, 1.5913°W)
Time: 19:58:39
(UTC+00:00)

Cosmos 2082 Rocket - Pass Details

Date: 19 May 2025
Orbit: 831 x 853 km, 71.0° (Epoch: 21 June)

Event Time Altitude Azimuth Distance (km) Brightness Sun altitude
Exits shadow 21:41:44 34° 134° (SE) 1,353 2.7 -18.8°
Maximum altitude 21:42:57 38° 106° (ESE) 1,259 2.7 -18.9°
Drops below altitude 10° 21:48:04 10° 40° (NE) 2,451 4.8 -19.4°
Sets 21:50:40 0° 32° (NNE) 3,392 5.7 -19.7°
